Location: ?????????
(54.7630°N, 39.4991°E)
Time: 09:48:35
(UTC+00:00)

Cosmos 1975 Rocket - Pass Details

Date: 14 April 2026
Orbit: 597 x 626 km, 82.5° (Epoch: 19 May)

Event Time Altitude Azimuth Distance (km) Brightness Sun altitude
Rises 18:27:51 0° 354° (N) 2,928 7.4 -16.0°
Reaches altitude 10° 18:30:25 10° 7° (N) 2,016 6.2 -16.3°
Maximum altitude 18:34:12 27° 65° (ENE) 1,224 4.4 -16.6°
Enters shadow 18:35:34 23° 94° (E) 1,348 4.4 -16.8°
